Wind_Speed
50 50 31 28 34 37 32 29 28 25 21 20 20 23 23 20 26 30 33 34 35 32 29 37 24 18 22 26 29 27 7 8 8 13 21 20 28 21 18 17 24 35 59 64 60 74 56 61 59 67 66 63 62 64
49 45 26 29 30 25 23 25 27 24 24 26 24 19 19 19 25 30 29 32 33 34 36 37 31 24 17 18 22 27 24 8 6 8 18 15 36 27 23 25 25 29 46 67 67 56 71 52 63 76 71 71 69 67
45 23 25 24 19 20 23 26 25 25 26 22 17 17 18 20 26 25 29 31 33 31 34 34 35 31 25 19 17 18 18 19 13 8 9 12 21 31 30 23 28 29 39 58 71 63 69 53 55 66 79 76 73 69
30 19 21 14 18 21 24 26 23 21 23 23 19 15 17 21 22 21 29 34 33 29 34 36 31 31 29 26 23 20 21 21 21 22 18 14 16 20 26 34 27 35 43 59 61 63 71 54 42 52 62 71 69 73
15 16 11 14 19 19 25 24 18 21 26 25 20 18 19 21 17 25 27 31 36 34 34 36 32 35 34 34 31 29 30 33 32 28 23 18 12 8 24 36 45 45 39 46 65 60 66 67 51 40 53 60 69 75
11 7 14 14 18 21 25 19 15 19 23 23 24 25 24 20 17 23 24 26 32 37 33 39 37 37 33 35 37 35 32 29 29 31 31 27 17 16 10 23 43 53 63 63 61 57 69 64 69 60 46 62 65 68
11 5 10 15 19 23 23 17 17 19 19 18 21 20 20 21 18 20 22 26 30 30 28 27 33 36 34 31 34 34 35 35 36 34 30 27 26 21 20 15 5 9 27 44 64 69 70 68 67 65 73 55 58 63
10 5 9 13 17 20 26 19 17 18 17 15 15 19 17 17 16 20 22 22 23 23 25 28 32 30 28 29 31 36 33 35 35 37 37 35 31 30 29 24 15 9 2 12 19 37 57 69 77 79 77 78 78 69
11 8 8 10 16 18 19 18 19 17 13 10 12 13 16 13 11 13 16 20 21 19 23 24 26 28 29 29 28 25 29 26 28 29 31 36 38 36 26 22 16 11 12 6 10 19 25 33 46 65 79 87 84 84
12 15 10 11 15 20 19 17 18 19 14 11 10 11 16 13 9 9 12 15 19 21 21 25 23 26 27 26 26 24 21 24 26 24 28 28 31 27 21 19 21 19 19 19 9 11 20 33 44 51 57 73 84 89
12 13 16 12 13 14 16 19 19 18 15 13 11 9 11 13 12 12 14 17 18 18 18 20 20 25 20 23 23 22 20 20 22 23 21 19 21 19 25 24 19 19 20 19 21 18 17 13 20 49 57 60 66 74
11 11 12 13 14 15 16 17 18 17 17 16 15 15 19 18 17 15 16 17 18 18 20 19 21 20 16 25 21 22 19 19 21 18 17 17 19 19 17 20 18 14 15 16 17 20 21 13 11 5 6 27 46 58
11 10 11 13 15 17 21 21 18 18 19 18 17 16 16 16 16 17 18 18 19 20 19 20 19 19 21 23 19 17 15 18 19 18 17 16 16 16 16 18 21 16 12 17 14 11 8 11 9 5 1 6 12 17
11 11 12 13 15 16 18 17 16 15 17 19 20 20 19 18 21 21 21 20 19 19 18 18 17 18 17 18 20 19 19 18 20 19 19 17 14 15 14 13 17 18 19 13 10 10 7 3 5 8 11 10 5 8
9 12 15 12 12 14 13 12 15 16 17 17 18 18 20 21 22 23 22 22 22 23 21 18 20 21 20 18 18 19 20 20 21 21 21 21 21 17 15 16 12 12 17 18 18 12 8 5 2 5 11 15 18 27
10 13 15 12 10 10 10 13 14 16 17 19 19 19 18 19 19 20 21 21 21 22 23 23 22 19 18 18 19 19 20 20 20 21 22 22 21 20 19 18 17 15 12 11 14 15 18 11 7 5 5 7 22 23
10 12 12 12 9 10 11 11 12 15 17 18 20 19 19 18 19 20 21 22 21 21 22 22 22 23 24 24 22 23 23 23 23 23 23 22 22 21 20 18 17 17 17 15 12 12 11 11 19 16 7 9 12 16
9 10 10 11 10 11 12 12 14 17 20 22 22 19 19 19 19 20 22 23 23 23 23 23 23 23 23 24 26 26 27 26 25 25 23 23 22 21 20 18 16 15 17 17 16 14 13 13 11 10 14 17 9 5
8 9 10 10 11 12 13 15 18 20 21 22 20 20 20 19 19 21 23 24 23 23 22 23 24 22 22 24 25 26 27 29 27 27 27 26 26 24 22 21 20 18 16 17 18 15 16 16 15 13 12 12 9 12
9 11 12 10 11 14 15 17 20 21 21 21 20 20 18 18 19 20 22 23 23 22 22 23 22 23 24 25 27 28 27 29 29 28 28 27 27 27 26 25 24 22 20 18 17 19 17 15 14 16 14 14 16 14
9 9 11 9 11 14 16 17 18 19 20 20 20 18 18 19 19 20 22 25 25 26 26 26 25 23 24 28 29 30 28 30 31 29 28 27 28 28 28 27 27 27 26 23 20 17 20 20 18 17 16 15 20 17
5 8 10 9 11 14 15 17 19 19 19 19 19 20 20 18 18 18 20 22 24 26 28 30 28 27 30 31 31 26 28 30 30 30 30 31 32 31 30 29 29 28 27 28 27 22 21 21 22 21 22 18 17 20
6 8 9 10 12 13 15 15 15 16 17 17 16 16 18 19 19 22 21 23 27 27 28 29 30 31 32 35 34 26 32 30 30 32 32 30 29 29 29 28 27 23 25 27 28 27 22 22 24 23 26 24 23 19
7 9 9 11 12 13 15 16 16 17 18 15 19 24 26 18 10 18 32 29 38 35 34 36 36 38 40 37 37 36 35 35 35 34 28 29 28 29 28 28 26 21 23 24 25 25 26 23 23 24 27 27 26 24
7 9 11 13 14 15 16 19 21 15 15 11 13 29 33 32 32 32 16 15 34 35 36 36 37 37 37 36 36 36 35 35 33 29 29 29 29 29 28 28 24 22 23 23 22 22 22 24 22 20 23 26 27 26
8 10 11 12 13 14 15 14 17 24 15 27 18 26 30 34 40 34 24 17 29 35 39 38 42 42 40 39 38 39 37 31 29 30 30 30 30 30 28 26 26 25 24 24 23 22 21 20 19 16 14 15 19 22
7 8 9 13 15 17 16 19 8 19 29 32 29 27 29 33 33 35 26 21 24 48 48 45 42 42 40 40 39 35 29 28 31 31 29 29 27 24 25 25 24 25 25 23 24 21 21 20 18 17 15 13 11 11
9 11 12 12 15 21 19 24 26 26 29 27 27 29 30 31 32 33 35 35 30 44 46 45 42 42 43 40 35 35 35 35 35 35 36 33 31 28 27 27 25 23 23 24 24 23 22 22 21 21 20 18 17 16
11 9 10 11 13 11 14 21 27 24 31 33 29 23 25 24 25 32 36 37 38 42 44 44 42 42 40 35 36 38 38 36 35 35 35 35 33 31 29 27 27 27 25 21 21 21 23 23 21 20 19 19 18 18
8 8 8 11 12 15 14 16 18 24 31 36 37 23 10 22 30 26 48 45 42 41 40 40 40 38 36 36 35 36 37 34 33 35 36 33 30 29 27 27 27 27 27 26 24 22 20 19 20 19 19 18 19 18
13 11 10 13 15 13 14 17 19 18 28 31 38 29 13 38 25 37 47 47 48 44 42 42 37 34 35 35 34 35 36 36 35 32 30 28 27 28 29 29 29 28 27 24 22 19 18 15 14 14 15 14 14 13
13 11 12 13 12 14 13 16 18 23 28 26 22 25 32 37 39 42 41 42 42 41 40 36 31 33 36 37 34 34 35 35 33 30 27 28 29 27 29 32 30 28 26 22 18 14 11 9 9 8 9 9 9 8
14 10 12 14 14 15 16 19 23 26 29 28 26 27 30 30 35 37 40 38 36 38 35 29 28 30 37 36 33 31 30 31 32 32 30 30 27 25 29 32 32 30 27 24 19 14 8 4 1 1 3 3 3 2
Wind_Direction
329 321 336 347 334 335 346 355 8 14 13 10 359 351 343 342 357 355 353 351 355 356 352 346 352 12 27 25 29 26 17 15 40 129 136 136 173 180 171 186 187 172 181 195 192 201 192 192 182 186 185 181 186 195
324 322 359 339 338 355 5 18 10 4 358 351 353 358 357 352 358 1 0 6 7 3 357 6 359 1 11 27 12 24 33 46 66 130 161 113 175 173 174 173 189 200 184 187 195 185 194 186 190 192 189 185 184 192
324 9 347 342 1 6 1 358 351 346 347 356 6 2 1 2 7 10 18 17 14 15 18 17 22 18 17 20 42 49 54 74 72 115 149 157 150 190 193 185 192 201 205 195 196 200 195 187 194 192 195 189 186 190
334 359 346 357 3 358 5 2 355 1 7 9 11 6 5 7 15 22 33 31 26 21 19 24 27 37 38 38 40 52 77 83 93 104 117 162 186 194 206 206 215 212 213 209 201 206 212 204 197 204 195 201 196 196
17 349 1 358 357 3 9 3 8 25 23 21 21 13 7 12 37 29 35 37 38 34 36 34 34 39 43 42 43 55 70 81 80 91 104 104 121 172 219 214 227 228 232 228 215 214 216 218 215 206 206 204 206 211
353 359 0 11 20 21 15 13 25 25 22 31 33 34 31 36 35 35 43 44 44 45 46 42 41 40 45 52 50 49 51 60 68 78 88 101 137 139 156 216 238 243 243 242 234 233 225 222 224 218 212 211 214 216
353 348 7 26 29 30 20 28 33 27 23 27 25 29 32 28 36 44 45 51 44 37 34 39 45 42 43 44 37 43 48 55 59 60 64 67 73 81 67 50 51 233 229 241 244 239 237 230 227 228 222 212 215 223
350 326 358 7 22 27 22 18 11 7 6 14 21 23 39 36 41 50 46 43 36 34 22 34 39 39 41 36 30 34 43 47 55 57 56 54 53 52 44 33 29 31 345 226 241 238 231 233 234 230 231 226 224 223
352 340 333 354 355 7 15 5 353 0 16 15 29 32 33 31 41 51 39 31 24 18 16 21 25 25 23 27 31 26 30 32 43 42 44 47 51 50 38 20 39 49 37 25 257 250 247 234 227 228 234 235 231 230
352 3 344 337 340 346 0 9 6 348 341 345 359 24 23 20 13 0 3 6 6 4 3 4 6 4 12 15 17 25 21 25 27 34 39 41 52 55 50 26 12 15 12 1 4 308 281 258 232 227 228 231 236 237
347 1 6 352 350 359 9 13 6 354 339 338 358 12 17 13 5 354 351 348 347 352 356 358 6 5 9 9 5 8 9 11 22 29 20 20 51 53 51 48 29 21 19 27 19 19 356 348 240 222 226 229 233 237
338 355 8 11 6 2 358 354 351 352 350 348 350 3 6 1 355 349 346 343 345 347 341 346 345 353 349 356 357 359 351 357 5 8 12 4 21 48 47 33 41 47 44 33 23 20 36 44 38 64 219 234 230 228
330 334 340 346 348 348 347 347 349 349 344 337 353 350 347 340 337 336 340 339 343 345 344 341 346 341 342 343 352 350 344 344 340 342 345 352 7 21 19 11 31 41 43 51 48 26 57 103 54 337 273 238 214 211
333 335 332 333 340 347 351 1 11 17 15 21 22 24 28 26 23 15 8 2 356 352 351 351 349 347 343 341 343 341 340 340 346 346 344 347 339 345 355 8 0 4 26 31 27 52 37 295 220 216 239 223 247 197
341 344 347 342 342 351 4 14 6 11 22 18 19 20 26 24 22 18 15 13 9 9 8 3 357 360 354 356 355 353 354 353 349 346 347 350 356 355 340 333 339 344 344 348 10 28 37 45 95 263 246 244 163 144
332 340 348 351 357 4 9 10 15 14 18 14 9 11 12 10 9 9 7 7 10 8 7 7 8 4 3 360 359 357 356 354 353 349 345 345 344 347 349 345 332 320 317 319 332 350 358 15 43 89 134 173 189 190
332 341 350 359 4 6 3 6 6 2 4 0 1 356 355 354 359 2 360 354 355 359 2 2 3 5 4 4 359 356 354 351 349 348 343 343 339 343 342 340 337 330 322 316 310 310 318 339 346 356 43 140 158 162
331 337 344 353 350 349 348 347 342 346 348 348 345 341 341 339 341 347 350 349 349 351 350 352 354 359 359 0 1 360 357 351 344 340 338 337 334 337 334 337 339 336 328 326 319 309 299 293 292 308 325 339 353 109
330 335 330 335 337 330 330 330 332 334 339 337 337 340 340 338 340 342 340 344 346 347 348 349 348 348 352 352 351 349 348 347 344 339 335 331 329 328 331 332 333 336 333 327 321 319 308 300 292 285 284 282 284 314
312 326 334 329 337 337 328 328 331 334 338 345 345 344 345 346 344 337 341 344 345 341 342 341 344 344 346 344 342 341 336 337 337 335 332 329 325 321 321 320 320 320 320 319 319 316 308 306 300 288 280 274 268 262
315 327 335 328 334 337 337 336 344 347 347 349 350 351 349 347 349 355 350 350 346 344 341 339 338 338 337 340 338 337 333 334 332 328 324 321 319 317 315 312 311 309 308 305 302 302 301 300 300 300 291 276 270 260
337 336 344 336 333 336 341 347 352 355 351 353 355 354 355 358 360 358 360 350 346 345 343 342 337 333 332 335 335 334 329 322 317 318 320 321 318 317 313 311 307 307 305 298 294 290 286 288 287 290 286 280 272 268
349 349 348 347 349 351 348 348 347 349 353 357 360 356 353 346 356 3 2 359 355 352 349 341 339 340 338 335 334 323 328 325 324 325 328 323 324 322 318 315 313 320 308 305 304 300 288 277 276 276 276 276 276 275
342 345 352 354 353 352 345 339 337 348 353 5 10 7 357 320 297 336 342 358 356 348 347 347 346 341 339 337 334 332 332 332 329 328 330 328 329 326 322 317 322 322 311 313 313 309 306 295 276 267 270 268 264 266
344 345 347 347 347 348 341 340 346 338 309 297 329 4 359 359 350 344 312 303 340 343 344 344 344 345 341 338 333 333 334 333 331 331 330 328 325 324 322 317 322 315 313 315 315 312 309 307 302 288 269 269 269 262
346 342 346 350 354 347 339 332 17 13 342 1 358 351 357 346 346 335 338 343 353 351 347 348 345 343 340 338 336 336 336 336 333 330 328 328 327 323 322 322 317 313 310 308 303 301 301 301 304 306 294 279 270 271
342 346 348 346 349 338 340 341 299 350 1 353 354 355 356 354 347 353 336 295 339 349 343 346 345 339 339 337 337 336 337 333 329 330 332 330 330 328 323 321 318 315 311 307 301 299 293 290 291 290 289 291 287 279
339 332 337 350 346 346 341 349 2 357 350 344 346 355 355 348 347 346 346 348 326 336 337 340 341 338 339 339 339 339 341 343 342 340 338 338 335 333 330 325 321 316 312 307 301 295 290 288 284 281 280 278 279 280
339 351 349 356 352 353 359 340 326 335 342 339 340 336 340 342 356 359 353 349 344 344 341 341 342 338 341 345 345 342 343 345 340 338 336 335 337 333 333 330 325 321 318 312 301 292 285 281 279 279 277 276 273 273
359 8 9 359 356 356 359 350 344 339 343 338 312 305 314 338 332 350 354 350 348 347 343 342 343 343 347 348 346 339 343 344 341 336 336 338 341 338 338 337 331 325 318 312 305 298 290 281 279 277 276 276 276 277
4 345 324 314 337 350 354 0 359 341 337 352 359 357 336 350 338 335 341 343 343 345 344 346 346 344 348 352 349 342 345 343 344 345 346 348 349 347 345 345 339 333 326 320 313 305 296 286 273 264 266 270 274 278
349 347 340 347 349 349 349 358 356 353 356 356 358 354 352 345 339 336 341 342 342 342 344 346 348 346 348 352 353 348 346 348 352 357 358 356 357 356 357 357 355 351 347 341 333 321 304 287 273 261 254 258 265 272
342 329 331 344 350 344 347 356 355 353 353 359 352 352 345 338 336 338 342 346 343 342 348 351 352 351 349 352 355 356 356 355 358 3 3 3 6 8 9 13 14 15 16 17 16 15 15 20 28 200 210 228 247 272
Height
5770 5763 5754 5749 5743 5736 5729 5722 5714 5707 5702 5697 5694 5689 5683 5678 5675 5670 5663 5655 5646 5637 5628 5619 5609 5602 5595 5588 5581 5577 5571 5568 5567 5568 5571 5576 5586 5590 5597 5598 5598 5607 5624 5641 5653 5659 5666 5676 5676 5687 5694 5705 5719 5727
5765 5756 5749 5746 5740 5733 5727 5721 5716 5710 5704 5698 5693 5687 5683 5679 5676 5671 5665 5656 5648 5640 5632 5622 5613 5605 5598 5592 5586 5581 5577 5572 5572 5574 5576 5578 5584 5590 5595 5599 5604 5612 5615 5627 5635 5638 5654 5658 5669 5670 5680 5693 5705 5716
5758 5751 5748 5743 5738 5733 5726 5721 5715 5709 5703 5698 5692 5688 5683 5680 5678 5673 5667 5659 5652 5645 5637 5629 5618 5612 5604 5597 5590 5585 5583 5578 5576 5578 5581 5584 5588 5597 5603 5608 5610 5611 5615 5618 5628 5634 5642 5646 5647 5658 5676 5688 5696 5710
5752 5749 5746 5741 5737 5732 5725 5720 5714 5709 5703 5697 5693 5689 5685 5683 5680 5676 5670 5664 5657 5650 5641 5634 5627 5619 5612 5605 5599 5593 5586 5585 5583 5581 5583 5588 5593 5598 5604 5610 5605 5603 5605 5615 5630 5637 5645 5658 5666 5673 5683 5694 5702 5708
5749 5748 5744 5740 5736 5731 5725 5720 5715 5710 5704 5700 5695 5691 5688 5685 5683 5678 5674 5668 5662 5655 5648 5642 5636 5629 5622 5617 5610 5603 5599 5596 5593 5591 5592 5592 5595 5599 5599 5604 5603 5609 5613 5621 5636 5643 5648 5659 5666 5675 5681 5687 5692 5702
5748 5746 5744 5740 5735 5730 5725 5720 5717 5712 5708 5703 5698 5694 5691 5688 5685 5682 5678 5673 5667 5661 5658 5652 5646 5639 5635 5629 5623 5617 5611 5607 5603 5600 5599 5598 5598 5600 5599 5601 5606 5605 5609 5615 5629 5637 5644 5655 5657 5667 5675 5677 5680 5689
5749 5747 5743 5740 5736 5731 5727 5723 5720 5715 5711 5707 5703 5698 5694 5692 5689 5686 5683 5678 5673 5669 5666 5662 5653 5650 5646 5641 5636 5629 5623 5618 5614 5610 5606 5604 5602 5602 5601 5603 5605 5605 5605 5604 5606 5616 5627 5638 5644 5645 5654 5664 5672 5680
5748 5746 5744 5741 5737 5732 5729 5725 5723 5718 5714 5709 5706 5702 5697 5694 5691 5688 5685 5681 5677 5676 5673 5666 5661 5659 5653 5649 5645 5640 5635 5630 5623 5619 5614 5608 5604 5601 5600 5600 5600 5600 5600 5600 5598 5600 5604 5613 5626 5634 5637 5647 5655 5661
5749 5745 5743 5740 5738 5734 5730 5726 5724 5720 5715 5711 5707 5703 5700 5697 5693 5690 5688 5685 5682 5680 5674 5670 5666 5662 5658 5653 5649 5647 5644 5638 5633 5627 5622 5615 5608 5604 5606 5604 5601 5600 5598 5598 5598 5598 5599 5600 5603 5610 5619 5630 5638 5646
5749 5745 5741 5739 5737 5734 5730 5726 5723 5720 5716 5712 5708 5704 5700 5698 5695 5692 5688 5685 5682 5679 5675 5672 5668 5664 5661 5656 5652 5650 5647 5642 5638 5633 5629 5622 5616 5615 5612 5608 5603 5600 5598 5593 5591 5590 5587 5583 5587 5593 5599 5608 5616 5626
5748 5745 5741 5739 5736 5733 5730 5726 5723 5720 5717 5713 5708 5705 5702 5698 5695 5693 5689 5687 5683 5680 5676 5673 5669 5665 5660 5658 5654 5651 5647 5644 5640 5637 5632 5630 5627 5622 5617 5613 5608 5603 5599 5594 5591 5587 5582 5574 5570 5575 5582 5590 5599 5611
5748 5745 5742 5740 5737 5734 5730 5727 5724 5720 5717 5714 5710 5704 5699 5696 5695 5693 5690 5687 5683 5680 5676 5673 5668 5666 5661 5658 5654 5651 5647 5644 5641 5638 5636 5631 5626 5625 5622 5618 5613 5608 5602 5597 5592 5587 5582 5578 5576 5576 5579 5583 5588 5593
5747 5744 5742 5740 5736 5733 5730 5726 5722 5719 5716 5712 5708 5705 5702 5699 5695 5692 5689 5685 5681 5678 5675 5671 5668 5665 5661 5657 5655 5652 5649 5645 5641 5637 5634 5631 5628 5624 5620 5617 5614 5611 5606 5601 5596 5591 5587 5584 5582 5582 5581 5580 5581 5583
5746 5744 5742 5739 5736 5733 5729 5726 5723 5721 5717 5713 5710 5706 5702 5699 5695 5692 5688 5684 5681 5677 5674 5671 5667 5664 5661 5657 5654 5651 5647 5643 5639 5636 5633 5629 5626 5623 5619 5617 5612 5609 5608 5604 5600 5595 5591 5587 5584 5583 5582 5582 5579 5580
5746 5744 5741 5737 5735 5732 5730 5728 5725 5722 5718 5716 5712 5708 5704 5701 5698 5694 5691 5687 5682 5678 5674 5670 5666 5662 5659 5656 5653 5649 5645 5641 5636 5632 5629 5626 5623 5620 5617 5614 5612 5609 5604 5601 5601 5598 5594 5590 5587 5584 5581 5582 5584 5581
5745 5743 5740 5737 5734 5732 5731 5728 5726 5723 5720 5716 5713 5709 5706 5703 5700 5696 5692 5688 5684 5679 5674 5670 5666 5663 5659 5655 5651 5647 5644 5640 5636 5632 5627 5624 5622 5619 5615 5611 5608 5606 5604 5601 5596 5594 5593 5592 5590 5586 5584 5582 5582 5584
5744 5742 5739 5737 5735 5733 5731 5729 5727 5724 5720 5717 5713 5710 5706 5703 5699 5695 5692 5688 5684 5680 5676 5671 5667 5662 5657 5653 5650 5645 5641 5637 5633 5629 5625 5622 5618 5616 5613 5610 5607 5602 5600 5597 5595 5592 5589 5588 5588 5585 5583 5583 5582 5581
5742 5741 5738 5736 5734 5733 5731 5729 5727 5723 5719 5716 5712 5709 5705 5702 5698 5694 5691 5687 5683 5678 5674 5669 5665 5661 5657 5652 5647 5643 5638 5634 5630 5626 5623 5619 5615 5612 5609 5607 5604 5600 5596 5593 5591 5589 5587 5584 5584 5584 5582 5580 5579 5579
5741 5739 5737 5736 5734 5732 5731 5729 5725 5722 5718 5714 5710 5706 5703 5699 5696 5692 5689 5685 5680 5676 5672 5667 5664 5659 5655 5651 5646 5641 5637 5632 5627 5622 5618 5614 5610 5607 5604 5601 5599 5597 5594 5590 5587 5586 5583 5580 5579 5579 5579 5578 5577 5577
5739 5738 5736 5734 5733 5731 5729 5727 5723 5719 5716 5712 5708 5704 5701 5698 5694 5691 5687 5682 5678 5674 5671 5667 5662 5657 5653 5648 5643 5638 5633 5628 5623 5619 5614 5610 5605 5601 5598 5595 5592 5591 5589 5587 5584 5580 5578 5577 5576 5574 5574 5574 5573 5575
5737 5736 5734 5733 5732 5729 5727 5724 5722 5718 5714 5710 5707 5703 5700 5696 5693 5689 5684 5680 5676 5672 5667 5662 5658 5654 5650 5645 5639 5634 5629 5623 5618 5614 5610 5605 5600 5596 5591 5588 5584 5581 5579 5579 5579 5577 5574 5571 5571 5570 5569 5569 5567 5570
5736 5735 5733 5732 5730 5728 5726 5723 5719 5716 5713 5709 5704 5701 5697 5694 5690 5686 5683 5680 5676 5671 5665 5660 5655 5651 5646 5641 5636 5630 5624 5619 5614 5608 5603 5597 5592 5588 5583 5579 5575 5573 5569 5566 5566 5568 5567 5565 5564 5563 5561 5562 5562 5561
5735 5734 5732 5730 5729 5727 5725 5720 5717 5714 5710 5706 5702 5698 5694 5691 5688 5685 5679 5675 5671 5667 5661 5657 5652 5647 5642 5636 5631 5626 5620 5613 5607 5601 5595 5589 5584 5579 5575 5570 5567 5565 5560 5555 5553 5552 5555 5556 5554 5554 5552 5552 5552 5554
5734 5733 5731 5729 5728 5726 5722 5718 5716 5713 5710 5706 5701 5696 5691 5683 5679 5678 5677 5669 5666 5662 5656 5650 5644 5639 5633 5628 5622 5617 5610 5603 5597 5592 5587 5582 5577 5572 5567 5562 5560 5558 5553 5549 5546 5543 5540 5541 5542 5544 5541 5542 5542 5544
5734 5733 5731 5728 5726 5723 5719 5715 5711 5707 5704 5700 5697 5693 5690 5687 5683 5677 5669 5664 5664 5658 5653 5647 5640 5634 5628 5621 5614 5609 5605 5598 5591 5585 5581 5576 5571 5565 5560 5555 5554 5550 5546 5543 5540 5537 5534 5531 5530 5532 5532 5530 5530 5531
5732 5731 5729 5727 5726 5722 5717 5713 5712 5710 5706 5702 5697 5694 5689 5685 5677 5669 5669 5667 5662 5656 5650 5642 5634 5628 5622 5616 5610 5603 5597 5591 5585 5581 5575 5569 5564 5558 5554 5549 5545 5542 5539 5536 5533 5531 5529 5527 5524 5524 5523 5524 5523 5521
5731 5729 5728 5726 5723 5718 5715 5711 5709 5707 5703 5699 5695 5692 5687 5682 5677 5673 5666 5659 5652 5649 5644 5637 5630 5623 5617 5611 5603 5597 5592 5587 5580 5574 5569 5564 5559 5554 5548 5543 5539 5535 5531 5528 5525 5524 5521 5520 5519 5518 5517 5517 5517 5517
5730 5728 5726 5724 5721 5717 5712 5710 5707 5705 5702 5699 5694 5689 5686 5680 5676 5671 5665 5663 5658 5650 5641 5633 5626 5618 5612 5605 5597 5591 5585 5579 5572 5566 5559 5555 5550 5546 5541 5536 5532 5528 5524 5519 5517 5515 5513 5512 5512 5511 5511 5511 5510 5510
5728 5726 5725 5723 5721 5719 5716 5713 5709 5705 5701 5696 5690 5687 5684 5679 5674 5669 5663 5656 5650 5642 5634 5627 5622 5614 5607 5601 5593 5585 5580 5574 5567 5562 5556 5549 5544 5538 5534 5529 5524 5519 5515 5514 5509 5507 5504 5503 5503 5503 5503 5503 5503 5503
5727 5726 5725 5723 5721 5718 5715 5712 5708 5705 5700 5695 5679 5670 5677 5672 5667 5662 5657 5652 5646 5639 5632 5626 5619 5610 5604 5598 5591 5583 5577 5572 5566 5558 5550 5544 5539 5534 5529 5524 5518 5513 5507 5503 5500 5497 5496 5494 5494 5494 5494 5495 5495 5496
5726 5724 5722 5722 5720 5718 5714 5712 5708 5704 5700 5694 5688 5679 5671 5673 5666 5662 5656 5648 5640 5634 5629 5622 5615 5608 5602 5597 5590 5580 5574 5568 5561 5554 5547 5541 5536 5530 5524 5519 5512 5506 5499 5494 5490 5488 5486 5486 5487 5488 5488 5489 5490 5491
5726 5724 5723 5721 5719 5716 5714 5711 5708 5704 5699 5695 5690 5686 5682 5674 5667 5661 5656 5648 5639 5632 5627 5620 5614 5607 5600 5594 5587 5580 5571 5564 5558 5552 5546 5540 5534 5528 5522 5516 5508 5501 5494 5488 5484 5481 5480 5480 5481 5482 5484 5485 5486 5487
5724 5722 5721 5719 5716 5714 5711 5709 5705 5701 5697 5694 5688 5684 5679 5674 5667 5660 5653 5648 5640 5632 5626 5619 5614 5607 5599 5592 5586 5579 5572 5564 5556 5550 5545 5539 5534 5529 5524 5517 5509 5501 5494 5488 5482 5479 5477 5478 5479 5481 5482 5484 5485 5486